Warning: Javascript must be enabled to use all the features on this page!


Page Loading - Please Wait...

Click to hideNews Bulletins
Click to hide state-specific text

Texas Water Dashboard

View over 750 USGS real-time stream, lake, reservoir, precipitation, and groundwater stations in context with current weather and hazard conditions.

Two fully-autonomous Twitter feeds distribute water level and precipitation data during flooding or severe rainfall: @USGS_TexasFlood and @USGS_TexasRain.

Click to go to the Texas Water Dashboard

USGS 08195000 Frio Rv at Concan, TX

PROVISIONAL DATA SUBJECT TO REVISION

Click to hidestation-specific text
Funding for this site is provided by the cooperators / programs below:
Click to go to the Edwards Aquifer Authority web page

Edwards Aquifer Authority

Click to go to the Cooperative Water Program web page

Cooperative Water Program

 

Rainfall Disclaimer


retransmission, forecasts and summary of this location by the National Weather Service
Retransmission, forecasts and summary by the National Weather Service

National Weather Service provided floatability levels for recreational users at several locations throughout Texas.

This station managed by the San Antonio Field Unit.

Available Parameters Available Period
All 6 Available Parameters for this site
  
00010 Temperature, water 2013-07-25  2017-01-24
00045 Precipitation 2016-09-26  2017-01-24
00060 Discharge 2007-10-01  2017-01-24
00065 Gage height 2007-10-01  2017-01-24
00095 Specific cond at 25C 2013-07-02  2017-01-24
99133 NO3+NO2,water,insitu 2015-09-24  2017-01-24

Graph
Graph w/ stats
Graph w/o stats
Graph w/ (up to 3) parms
Table
Tab-separated
Days  (2)
 

  -- or --
Begin date
 

End date
 

Summary of all available data for this site
Instantaneous-data availability statement






Date / Time




Gage
height,
feet,




Dis-
charge,
ft3/s,



Precip-
itation
total,
inches,
Specif-
ic
conduc-
tance,
wat unf
uS/cm @
25 degC,



Temper-
ature,
water,
deg C,

Nitrate
+
nitrite
water,
in situ
mg/L as,
01/22/2017 00:00 CST3.82P  108P  0.00P  442P  16.2P  1.52P  
01/22/2017 00:15 CST3.83P  111P  0.00P  442P  16.2P     
01/22/2017 00:30 CST3.83P  111P  0.00P  442P  16.1P     
01/22/2017 00:45 CST3.83P  111P  0.00P  442P  16.1P     
01/22/2017 01:00 CST3.83P  111P  0.00P  442P  16.0P  1.53P  
01/22/2017 01:15 CST3.83P  111P  0.00P  442P  16.0P     
01/22/2017 01:30 CST3.83P  111P  0.00P  442P  15.9P     
01/22/2017 01:45 CST3.83P  111P  0.00P  442P  15.9P     
01/22/2017 02:00 CST3.84P  114P  0.00P  442P  15.8P  1.53P  
01/22/2017 02:15 CST3.83P  111P  0.00P  442P  15.8P     
01/22/2017 02:30 CST3.83P  111P  0.00P  443P  15.8P     
01/22/2017 02:45 CST3.82P  108P  0.00P  443P  15.7P     
01/22/2017 03:00 CST3.83P  111P  0.00P  443P  15.7P  1.53P  
01/22/2017 03:15 CST3.83P  111P  0.00P  443P  15.6P     
01/22/2017 03:30 CST3.83P  111P  0.00P  443P  15.6P     
01/22/2017 03:45 CST3.82P  108P  0.00P  443P  15.5P     
01/22/2017 04:00 CST3.83P  111P  0.00P  443P  15.5P  1.53P  
01/22/2017 04:15 CST3.83P  111P  0.00P  443P  15.4P     
01/22/2017 04:30 CST3.82P  108P  0.00P  443P  15.4P     
01/22/2017 04:45 CST3.82P  108P  0.00P  443P  15.3P     
01/22/2017 05:00 CST3.83P  111P  0.00P  444P  15.2P  1.53P  
01/22/2017 05:15 CST3.82P  108P  0.00P  444P  15.2P     
01/22/2017 05:30 CST3.84P  114P  0.00P  444P  15.1P     
01/22/2017 05:45 CST3.83P  111P  0.00P  444P  15.0P     
01/22/2017 06:00 CST3.83P  111P  0.00P  444P  15.0P  1.53P  
01/22/2017 06:15 CST3.81P  105P  0.00P  444P  14.9P     
01/22/2017 06:30 CST3.82P  108P  0.00P  444P  14.8P     
01/22/2017 06:45 CST3.82P  108P  0.00P  445P  14.8P     
01/22/2017 07:00 CST3.83P  111P  0.00P  445P  14.7P  1.53P  
01/22/2017 07:15 CST3.82P  108P  0.00P  444P  14.6P     
01/22/2017 07:30 CST3.82P  108P  0.00P  445P  14.6P     
01/22/2017 07:45 CST3.83P  111P  0.00P  445P  14.5P     
01/22/2017 08:00 CST3.83P  111P  0.00P  445P  14.5P  1.53P  
01/22/2017 08:15 CST3.82P  108P  0.00P  445P  14.4P     
01/22/2017 08:30 CST3.82P  108P  0.00P  445P  14.4P     
01/22/2017 08:45 CST3.83P  111P  0.00P  445P  14.3P     
01/22/2017 09:00 CST3.82P  108P  0.00P  445P  14.3P  1.53P  
01/22/2017 09:15 CST3.81P  105P  0.00P  445P  14.3P     
01/22/2017 09:30 CST3.83P  111P  0.00P  445P  14.3P     
01/22/2017 09:45 CST3.81P  105P  0.00P  445P  14.3P     
01/22/2017 10:00 CST3.82P  108P  0.00P  445P  14.3P  1.53P  
01/22/2017 10:15 CST3.81P  105P  0.00P  445P  14.4P     
01/22/2017 10:30 CST3.81P  105P  0.00P  445P  14.4P     
01/22/2017 10:45 CST3.82P  108P  0.00P  444P  14.5P     
01/22/2017 11:00 CST3.82P  108P  0.00P  445P  14.6P  1.54P  
01/22/2017 11:15 CST3.81P  105P  0.00P  444P  14.6P     
01/22/2017 11:30 CST3.83P  111P  0.00P  444P  14.7P     
01/22/2017 11:45 CST3.81P  105P  0.00P  444P  14.8P     
01/22/2017 12:00 CST3.82P  108P  0.00P  444P  14.9P  1.54P  
01/22/2017 12:15 CST3.82P  108P  0.00P  444P  15.0P     
01/22/2017 12:30 CST3.82P  108P  0.00P  444P  15.1P     
01/22/2017 12:45 CST3.83P  111P  0.00P  444P  15.2P     
01/22/2017 13:00 CST3.81P  105P  0.00P  444P  15.3P  1.53P  
01/22/2017 13:15 CST3.83P  111P  0.00P  444P  15.4P     
01/22/2017 13:30 CST3.83P  111P  0.00P  444P  15.5P     
01/22/2017 13:45 CST3.82P  108P  0.00P  444P  15.6P     
01/22/2017 14:00 CST3.82P  108P  0.00P  444P  15.7P  1.53P  
01/22/2017 14:15 CST3.81P  105P  0.00P  444P  15.7P     
01/22/2017 14:30 CST3.82P  108P  0.00P  444P  15.8P     
01/22/2017 14:45 CST3.81P  105P  0.00P  444P  15.8P     
01/22/2017 15:00 CST3.83P  111P  0.00P  444P  15.9P  1.53P  
01/22/2017 15:15 CST3.82P  108P  0.00P  444P  15.9P     
01/22/2017 15:30 CST3.82P  108P  0.00P  443P  15.9P     
01/22/2017 15:45 CST3.82P  108P  0.00P  443P  15.9P     
01/22/2017 16:00 CST3.83P  111P  0.00P  443P  15.9P  1.53P  
01/22/2017 16:15 CST3.83P  111P  0.00P  443P  15.9P     
01/22/2017 16:30 CST3.83P  111P  0.00P  443P  15.9P     
01/22/2017 16:45 CST3.83P  111P  0.00P  442P  15.9P     
01/22/2017 17:00 CST3.82P  108P  0.00P  442P  15.9P  1.53P  
01/22/2017 17:15 CST3.82P  108P  0.00P  442P  15.8P     
01/22/2017 17:30 CST3.83P  111P  0.00P  442P  15.8P     
01/22/2017 17:45 CST3.83P  111P  0.00P  442P  15.8P     
01/22/2017 18:00 CST3.83P  111P  0.00P  442P  15.8P  1.53P  
01/22/2017 18:15 CST3.83P  111P  0.00P  442P  15.7P     
01/22/2017 18:30 CST3.82P  108P  0.00P  442P  15.7P     
01/22/2017 18:45 CST3.83P  111P  0.00P  442P  15.7P     
01/22/2017 19:00 CST3.82P  108P  0.00P  442P  15.7P  1.53P  
01/22/2017 19:15 CST3.83P  111P  0.00P  442P  15.6P     
01/22/2017 19:30 CST3.83P  111P  0.00P  442P  15.6P     
01/22/2017 19:45 CST3.82P  108P  0.00P  442P  15.6P     
01/22/2017 20:00 CST3.82P  108P  0.00P  442P  15.6P  1.53P  
01/22/2017 20:15 CST3.83P  111P  0.00P  442P  15.6P     
01/22/2017 20:30 CST3.83P  111P  0.00P  442P  15.6P     
01/22/2017 20:45 CST3.83P  111P  0.00P  442P  15.5P     
01/22/2017 21:00 CST3.83P  111P  0.00P  442P  15.5P  1.53P  
01/22/2017 21:15 CST3.82P  108P  0.00P  442P  15.4P     
01/22/2017 21:30 CST3.82P  108P  0.00P  442P  15.4P     
01/22/2017 21:45 CST3.83P  111P  0.00P  442P  15.3P     
01/22/2017 22:00 CST3.83P  111P  0.00P  442P  15.3P  1.53P  
01/22/2017 22:15 CST3.83P  111P  0.00P  442P  15.2P     
01/22/2017 22:30 CST3.83P  111P  0.00P  442P  15.1P     
01/22/2017 22:45 CST3.82P  108P  0.00P  442P  15.1P     
01/22/2017 23:00 CST3.82P  108P  0.00P  442P  15.0P  1.53P  
01/22/2017 23:15 CST3.83P  111P  0.00P  442P  14.9P     
01/22/2017 23:30 CST3.82P  108P  0.00P  442P  14.9P     
01/22/2017 23:45 CST3.82P  108P  0.00P  442P  14.8P     
01/23/2017 00:00 CST3.82P  108P  0.00P  442P  14.7P  1.53P  
01/23/2017 00:15 CST3.82P  108P  0.00P  442P  14.7P     
01/23/2017 00:30 CST3.83P  111P  0.00P  442P  14.6P     
01/23/2017 00:45 CST3.82P  108P  0.00P  443P  14.6P     
01/23/2017 01:00 CST3.82P  108P  0.00P  443P  14.5P  1.53P  
01/23/2017 01:15 CST3.83P  111P  0.00P  443P  14.5P     
01/23/2017 01:30 CST3.83P  111P  0.00P  443P  14.4P     
01/23/2017 01:45 CST3.82P  108P  0.00P  443P  14.4P     
01/23/2017 02:00 CST3.83P  111P  0.00P  443P  14.3P  1.53P  
01/23/2017 02:15 CST3.82P  108P  0.00P  443P  14.3P     
01/23/2017 02:30 CST3.82P  108P  0.00P  443P  14.2P     
01/23/2017 02:45 CST3.82P  108P  0.00P  443P  14.2P     
01/23/2017 03:00 CST3.82P  108P  0.00P  443P  14.2P  1.54P  
01/23/2017 03:15 CST3.83P  111P  0.00P  443P  14.1P     
01/23/2017 03:30 CST3.82P  108P  0.00P  443P  14.1P     
01/23/2017 03:45 CST3.82P  108P  0.00P  443P  14.0P     
01/23/2017 04:00 CST3.82P  108P  0.00P  444P  14.0P  1.54P  
01/23/2017 04:15 CST3.82P  108P  0.00P  444P  14.0P     
01/23/2017 04:30 CST3.82P  108P  0.00P  444P  13.9P     
01/23/2017 04:45 CST3.82P  108P  0.00P  444P  13.9P     
01/23/2017 05:00 CST3.82P  108P  0.00P  444P  13.8P  1.54P  
01/23/2017 05:15 CST3.82P  108P  0.00P  444P  13.8P     
01/23/2017 05:30 CST3.82P  108P  0.00P  444P  13.8P     
01/23/2017 05:45 CST3.82P  108P  0.00P  444P  13.7P     
01/23/2017 06:00 CST3.82P  108P  0.00P  444P  13.7P  1.54P  
01/23/2017 06:15 CST3.82P  108P  0.00P  444P  13.6P     
01/23/2017 06:30 CST3.82P  108P  0.00P  444P  13.6P     
01/23/2017 06:45 CST3.82P  108P  0.00P  444P  13.6P     
01/23/2017 07:00 CST3.82P  108P  0.00P  445P  13.5P  1.54P  
01/23/2017 07:15 CST3.82P  108P  0.00P  445P  13.4P     
01/23/2017 07:30 CST3.82P  108P  0.00P  445P  13.4P     
01/23/2017 07:45 CST3.82P  108P  0.00P  445P  13.4P     
01/23/2017 08:00 CST3.82P  108P  0.00P  445P  13.3P  1.54P  
01/23/2017 08:15 CST3.82P  108P  0.00P  445P  13.3P     
01/23/2017 08:30 CST3.83P  111P  0.00P  445P  13.3P     
01/23/2017 08:45 CST3.82P  108P  0.00P  445P  13.2P     
01/23/2017 09:00 CST3.82P  108P  0.00P  446P  13.2P  1.54P  
01/23/2017 09:15 CST3.83P  111P  0.00P  446P  13.3P     
01/23/2017 09:30 CST3.82P  108P  0.00P  446P  13.3P     
01/23/2017 09:45 CST3.82P  108P  0.00P  445P  13.4P     
01/23/2017 10:00 CST3.83P  111P  0.00P  446P  13.4P  1.54P  
01/23/2017 10:15 CST3.82P  108P  0.00P  445P  13.5P     
01/23/2017 10:30 CST3.82P  108P  0.00P  445P  13.6P     
01/23/2017 10:45 CST3.82P  108P  0.00P  445P  13.7P     
01/23/2017 11:00 CST3.83P  111P  0.00P  445P  13.8P  1.54P  
01/23/2017 11:15 CST3.83P  111P  0.00P  445P  13.9P     
01/23/2017 11:30 CST3.83P  111P  0.00P  445P  14.1P     
01/23/2017 11:45 CST3.83P  111P  0.00P  445P  14.2P     
01/23/2017 12:00 CST3.82P  108P  0.00P  445P  14.3P  1.54P  
01/23/2017 12:15 CST3.83P  111P  0.00P  445P  14.5P     
01/23/2017 12:30 CST3.83P  111P  0.00P  445P  14.6P     
01/23/2017 12:45 CST3.82P  108P  0.00P  445P  14.7P     
01/23/2017 13:00 CST3.82P  108P  0.00P  445P  14.8P  1.54P  
01/23/2017 13:15 CST3.83P  111P  0.00P  445P  15.0P     
01/23/2017 13:30 CST3.83P  111P  0.00P  445P  15.1P     
01/23/2017 13:45 CST3.83P  111P  0.00P  445P  15.2P     
01/23/2017 14:00 CST3.83P  111P  0.00P  445P  15.3P  1.54P  
01/23/2017 14:15 CST3.83P  111P  0.00P  445P  15.4P     
01/23/2017 14:30 CST3.83P  111P  0.00P  445P  15.5P     
01/23/2017 14:45 CST3.83P  111P  0.00P  445P  15.6P     
01/23/2017 15:00 CST3.82P  108P  0.00P  445P  15.6P  1.54P  
01/23/2017 15:15 CST3.82P  108P  0.00P  445P  15.7P     
01/23/2017 15:30 CST3.83P  111P  0.00P  445P  15.7P     
01/23/2017 15:45 CST3.82P  108P  0.00P  445P  15.8P     
01/23/2017 16:00 CST3.83P  111P  0.00P  445P  15.8P  1.54P  
01/23/2017 16:15 CST3.82P  108P  0.00P  445P  15.8P     
01/23/2017 16:30 CST3.83P  111P  0.00P  445P  15.8P     
01/23/2017 16:45 CST3.83P  111P  0.00P  445P  15.8P     
01/23/2017 17:00 CST3.83P  111P  0.00P  445P  15.8P  1.54P  
01/23/2017 17:15 CST3.83P  111P  0.00P  445P  15.8P     
01/23/2017 17:30 CST3.82P  108P  0.00P  445P  15.8P     
01/23/2017 17:45 CST3.82P  108P  0.00P  445P  15.8P     
01/23/2017 18:00 CST3.82P  108P  0.00P  445P  15.8P  1.54P  
01/23/2017 18:15 CST3.82P  108P  0.00P  445P  15.8P     
01/23/2017 18:30 CST3.82P  108P  0.00P  445P  15.8P     
01/23/2017 18:45 CST3.82P  108P  0.00P  445P  15.8P     
01/23/2017 19:00 CST3.82P  108P  0.00P  444P  15.8P  1.54P  
01/23/2017 19:15 CST3.82P  108P  0.00P  445P  15.8P     
01/23/2017 19:30 CST3.83P  111P  0.00P  444P  15.7P     
01/23/2017 19:45 CST3.82P  108P  0.00P  444P  15.7P     
01/23/2017 20:00 CST3.83P  111P  0.00P  444P  15.7P  1.54P  
01/23/2017 20:15 CST3.82P  108P  0.00P  444P  15.7P     
01/23/2017 20:30 CST3.82P  108P  0.00P  444P  15.6P     
01/23/2017 20:45 CST3.82P  108P  0.00P  444P  15.6P     
01/23/2017 21:00 CST3.82P  108P  0.00P  444P  15.6P  1.54P  
01/23/2017 21:15 CST3.83P  111P  0.00P  444P  15.5P     
01/23/2017 21:30 CST3.82P  108P  0.00P  444P  15.5P     
01/23/2017 21:45 CST3.82P  108P  0.00P  444P  15.4P     
01/23/2017 22:00 CST3.82P  108P  0.00P  444P  15.4P  1.54P  
01/23/2017 22:15 CST3.82P  108P  0.00P  444P  15.3P     
01/23/2017 22:30 CST3.82P  108P  0.00P  444P  15.2P     
01/23/2017 22:45 CST3.82P  108P  0.00P  444P  15.2P     
01/23/2017 23:00 CST3.82P  108P  0.00P  444P  15.1P  1.54P  
01/23/2017 23:15 CST3.82P  108P  0.00P  444P  15.0P     
01/23/2017 23:30 CST3.83P  111P  0.00P  444P  15.0P     
01/23/2017 23:45 CST3.82P  108P  0.00P  444P  14.9P     
01/24/2017 00:00 CST3.82P  108P  0.00P  444P  14.8P  1.54P  
01/24/2017 00:15 CST3.82P  108P  0.00P  444P  14.8P     
01/24/2017 00:30 CST3.82P  108P  0.00P  444P  14.8P     
01/24/2017 00:45 CST3.82P  108P  0.00P  445P  14.7P     
01/24/2017 01:00 CST3.82P  108P  0.00P  445P  14.6P  1.54P  
01/24/2017 01:15 CST3.82P  108P  0.00P  445P  14.6P     
01/24/2017 01:30 CST3.82P  108P  0.00P  445P  14.6P     
01/24/2017 01:45 CST3.82P  108P  0.00P  445P  14.5P     
01/24/2017 02:00 CST3.82P  108P  0.00P  445P  14.5P  1.54P  
01/24/2017 02:15 CST3.82P  108P  0.00P  445P  14.4P     
01/24/2017 02:30 CST3.82P  108P  0.00P  445P  14.4P     
01/24/2017 02:45 CST3.82P  108P  0.00P  445P  14.4P     
01/24/2017 03:00 CST3.82P  108P  0.00P  445P  14.3P  1.54P  
01/24/2017 03:15 CST3.82P  108P  0.00P  445P  14.3P     
01/24/2017 03:30 CST3.82P  108P  0.00P  445P  14.3P     
01/24/2017 03:45 CST3.82P  108P  0.00P  445P  14.2P     
01/24/2017 04:00 CST3.82P  108P  0.00P  445P  14.2P  1.54P  
01/24/2017 04:15 CST3.82P  108P  0.00P  446P  14.2P     
01/24/2017 04:30 CST3.82P  108P  0.00P  446P  14.2P     
01/24/2017 04:45 CST3.82P  108P  0.00P  446P  14.1P     
01/24/2017 05:00 CST3.82P  108P  0.00P  446P  14.1P  1.54P  
01/24/2017 05:15 CST3.82P  108P  0.00P  446P  14.1P     
01/24/2017 05:30 CST3.82P  108P  0.00P  446P  14.1P     
01/24/2017 05:45 CST3.82P  108P  0.00P  446P  14.1P     
01/24/2017 06:00 CST3.82P  108P  0.00P  446P  14.0P  1.54P  
01/24/2017 06:15 CST3.82P  108P  0.00P  446P  14.0P     
01/24/2017 06:30 CST3.82P  108P  0.00P  446P  14.0P     
01/24/2017 06:45 CST3.82P  108P  0.00P  446P  14.0P     
01/24/2017 07:00 CST3.82P  108P  0.00P  447P  14.0P  1.55P  
01/24/2017 07:15 CST3.82P  108P  0.00P  447P  14.0P     
01/24/2017 07:30 CST3.82P  108P  0.00P  447P  13.9P     
01/24/2017 07:45 CST3.82P  108P  0.00P  447P  13.9P     
01/24/2017 08:00 CST3.82P  108P  0.00P  447P  13.9P  1.55P  
01/24/2017 08:15 CST3.81P  105P  0.00P  447P  13.9P     
01/24/2017 08:30 CST3.82P  108P  0.00P  447P  13.9P     
01/24/2017 08:45 CST3.82P  108P  0.00P  447P  13.9P     
01/24/2017 09:00 CST3.82P  108P  0.00P  447P  13.9P  1.55P  
01/24/2017 09:15 CST3.82P  108P  0.00P  447P  14.0P     
01/24/2017 09:30 CST3.82P  108P  0.00P  447P  14.0P     
01/24/2017 09:45 CST3.82P  108P  0.00P  447P  14.1P     
01/24/2017 10:00 CST3.82P  108P  0.00P  447P  14.2P  1.55P  
01/24/2017 10:15 CST3.82P  108P  0.00P  447P  14.2P     
01/24/2017 10:30 CST3.82P  108P  0.00P  447P  14.4P     
01/24/2017 10:45 CST3.82P  108P  0.00P  447P  14.5P     
01/24/2017 11:00 CST3.82P  108P  0.00P  447P  14.6P  1.55P  
01/24/2017 11:15 CST3.82P  108P  0.00P  447P  14.7P     
01/24/2017 11:30 CST3.82P  108P  0.00P  446P  14.9P     
01/24/2017 11:45 CST3.82P  108P  0.00P  446P  15.0P     
01/24/2017 12:00 CST3.82P  108P  0.00P  446P  15.1P  1.55P  
01/24/2017 12:15 CST3.83P  111P  0.00P  446P  15.3P     
01/24/2017 12:30 CST3.82P  108P  0.00P  446P  15.4P     
01/24/2017 12:45 CST3.83P  111P  0.00P  446P  15.6P     
01/24/2017 13:00 CST3.82P  108P  0.00P  446P  15.7P  1.55P  
01/24/2017 13:15 CST3.82P  108P  0.00P  446P  15.9P     
01/24/2017 13:30 CST3.82P  108P  0.00P  446P  15.9P     
01/24/2017 13:45 CST3.82P  108P  0.00P  446P  16.0P     
01/24/2017 14:00 CST3.83P  111P  0.00P  446P  16.1P  1.55P  
01/24/2017 14:15 CST3.83P  111P  0.00P  446P  16.2P     
01/24/2017 14:30 CST3.82P  108P  0.00P  446P  16.3P     
01/24/2017 14:45 CST3.82P  108P  0.00P  446P  16.4P     
01/24/2017 15:00 CST3.82P  108P  0.00P  446P  16.4P  1.54P  
01/24/2017 15:15 CST3.82P  108P  0.00P  446P  16.5P     
01/24/2017 15:30 CST3.82P  108P  0.00P  445P  16.6P     

Explanation
  P  Provisional data subject to revision.